Location: Overspoor
(51.4747°N, 5.6641°E)
Time: 08:24:42
(UTC+01:00)

N. Korean satellite - Visible Passes

Search period start: 24 January 2019 00:00
Search period end: 03 February 2019 00:00
Orbit: 458 x 509 km, 97.2° (Epoch: 23 January)

Date Brightness Start Highest point End Pass type
(mag) Time Alt. Az. Time Alt. Az. Time Alt. Az.
24 Jan 10.0 05:49:15 10° NE 05:51:13 14° E 05:53:09 10° ESE visible
24 Jan 6.6 07:21:22 10° N 07:25:03 60° WNW 07:28:39 10° SSW visible
24 Jan 7.0 18:01:45 10° S 18:05:26 72° WSW 18:09:11 10° NNW visible
25 Jan 6.9 06:56:40 10° NNE 07:00:24 72° ESE 07:04:01 10° S visible
25 Jan 10.0 19:12:36 10° WSW 19:14:37 14° W 19:16:39 10° NW visible
26 Jan 8.2 06:32:09 10° NNE 06:35:39 38° E 06:39:04 10° SSE visible
26 Jan 9.3 18:46:39 10° SSW 18:49:43 24° W 18:52:49 10° NW visible
27 Jan 9.4 06:07:55 10° NE 06:10:48 21° E 06:13:38 10° SE visible
27 Jan 7.2 07:40:57 10° N 07:44:23 37° WNW 07:47:45 10° SW visible
27 Jan 8.1 18:21:20 10° S 18:24:54 43° W 18:28:30 10° NNW visible
28 Jan 10.2 05:44:22 10° ENE 05:45:52 12° E 05:47:23 10° ESE visible
28 Jan 6.5 07:16:06 10° N 07:19:48 68° WNW 07:23:23 10° SSW visible
28 Jan 6.8 17:56:27 10° SSE 18:00:10 82° WSW 18:03:56 10° NNW visible
29 Jan 7.1 06:51:26 10° NNE 06:55:06 63° E 06:58:41 10° S visible
29 Jan 10.0 19:06:57 10° SW 19:09:17 16° W 19:11:38 10° NW visible
30 Jan 8.5 06:26:57 10° NNE 06:30:19 33° E 06:33:37 10° SSE visible
30 Jan 9.1 18:41:11 10° SSW 18:44:24 27° W 18:47:38 10° NW visible
31 Jan 9.6 06:02:48 10° NE 06:05:27 19° E 06:08:04 10° SE visible
31 Jan 7.0 07:35:38 10° N 07:39:06 41° WNW 07:42:30 10° SW visible
31 Jan 7.8 18:15:58 10° S 18:19:35 49° W 18:23:15 10° NNW visible
01 Feb 10.3 05:39:44 10° ENE 05:40:29 10° E 05:41:15 10° E visible
01 Feb 6.5 07:10:48 10° N 07:14:29 78° WNW 07:18:03 10° SSW visible
02 Feb 7.4 06:46:10 10° NNE 06:49:45 54° E 06:53:17 10° S visible
02 Feb 9.9 19:01:21 10° SW 19:03:56 18° W 19:06:30 10° NW visible
